Das Wetter in  D-61279 Heinzenberg / Taunus





Wetter Minimum- & Maximum-Werte im April 2010

Standort: Heinzenberg / Taunus - Höhe 297 m         8 24' 1" Ost 50 21' 51" Nord
(   3-stündige Aktualisierung    letzte Aktualisierung um 19:04 am 30.04.2010  )


Messgrösse

Minimum

Maximum

Durchschnitt

Temperatur West /
Luftfeuchte West
Anklicken für Monats-Diagramm

-3,1 C

07:07
22.04.2010

20 %

13:18
23.04.2010

25,1 C

13:45
29.04.2010

97 %

01:23
13.04.2010

Temp

9,6 C

Feuchte

64 %

Temperatur Ost /
Luftfeuchte Ost
Anklicken für Monats-Diagramm

-3,0 C

07:17
22.04.2010

--

--
--

24,8 C

16:30
25.04.2010

--

--
--

9,5 C

--

Luftdruck Anklicken für Monats-Diagramm

1005,2 hPa

00:02
01.04.2010

1033,1 hPa

08:04
09.04.2010

1019,3 hPa

Taupunkt

-9,3 C

20:32
22.04.2010

11,9 C

10:45
29.04.2010

2,1 C

Windchill
( gefühlte Temperatur )

-10,0 C

04:37
01.04.2010

24,4 C

18:50
29.04.2010

7,4 C

Windgeschwindigkeit /
Windrichtung
Anklicken für Monats-Diagramm

---

51,6 km/h / W-SW

16:44
04.04.2010

8,9 km/h
SO

Helligkeit /
Sonnenschein
Anklicken für Monats-Diagramm
Anklicken für Monats-Diagramm

Sonnenschein:

218:19 Stunden

Max: 12:40 Std am
24.04.2010

116 klux

12:41
30.04.2010

37 klux

Solarstrahlung Anklicken für Monats-Diagramm

---

793 W/m

12:41
30.04.2010

274 W/m

Regenmenge
    April 2010
Anklicken für Monats-Diagramm

Insgesamt 15,0 l/m

in 22:28 Stunden
an 11 Tagen

6,8 l/m

03:20
26.04.2010

Gesamtmenge

15,0 l/m

Regen-Tage
    April 2010
Anklicken für Monats-Diagramm

>   0 mm/Tag

>   2 mm/Tag

>   5 mm/Tag

> 10 mm/Tag

> 20 mm/Tag

11 Tage     
2 Tage     
2 Tage     
0 Tage     
0 Tage     

Eisige Tage April 2010 / 2009

Tmin ≤ -10C     

0 Tage

/

0 Tage

Eistage April 2010 / 2009

Tmax <     0C     

0 Tage

/

0 Tage

Frosttage April 2010 / 2009

Tmin ≤     0C     

5 Tage

/

  1 Tag

Kalte Tage April 2010 / 2009

Tmax <   10C     

3 Tage

/

  1 Tag

Warme Tage April 2010 / 2009

Tmax ≥   20C     

7 Tage

/

14 Tage

Sommertage April 2010 / 2009

Tmax ≥   25C     

  1 Tag

/

2 Tage

Heisse Tage April 2010 / 2009

Tmax ≥   30C     

0 Tage

/

0 Tage


Monatsdiagramm April 2010

Die Kurven zeigen den Durchschnittswert des jeweiligen Tages an


Wetter-Monatsübersicht April 2010
Datum
  Temperatur
   Luftdruck
   Wind
  Regen
   Luftfeuchte
   Helligkeit

Sonnen-
schein


Temp.

Min.
Temp.

Max.
Temp.


Luftdruck

Min.
Luftdruck

Max.
Luftdruck

-Geschw.
Haupt-Richtg.

Max.
Wind

Menge /
Dauer


Feuchte

Min.
Feuchte

Max.
Feuchte


Helligkeit

Max.
Helligkeit

1.
April
4,9 C1,1 C
23:58
9,8 C
16:17
1011,1 hPa1005,2 hPa
00:02
1018,0 hPa
23:58
22,8 km/h
W-SW
50,3 km/h
12:37  
---
64 %36 %
17:27
79 %
00:02
38,5 klux97,3 klux
14:22
7:40 Std 
2.
April
5,2 C-2,5 C
07:08
12,9 C
17:18
1015,8 hPa1011,9 hPa
20:13
1019,4 hPa
02:43
10,7 km/h
O-SO
34,6 km/h
17:58  
---
62 %32 %
17:08
91 %
07:33
43,3 klux88,4 klux
14:08
9:45 Std 
3.
April
7,9 C6,1 C
05:38
10,2 C
14:53
1010,8 hPa1008,8 hPa
18:43
1012,2 hPa
07:03
13,5 km/h
SW
32,7 km/h
15:08  
0,5 l/m
1:41 Stunden
76 %57 %
00:03
88 %
22:54
16,6 klux53,0 klux
09:38
55 Min 
4.
April
7,4 C5,6 C
08:09
11,9 C
14:09
1011,3 hPa1009,0 hPa
02:09
1019,5 hPa
23:50
22,4 km/h
W-SW
51,6 km/h
16:44  
1,1 l/m
3:10 Stunden
81 %58 %
14:14
88 %
00:14
30,2 klux104,0 klux
12:34
4:25 Std 
5.
April
7,9 C4,2 C
06:30
12,6 C
16:50
1025,6 hPa1019,4 hPa
00:00
1028,6 hPa
23:51
14,3 km/h
W
31,0 km/h
16:25  
---
67 %35 %
16:55
89 %
06:10
40 klux101 klux
12:55
7:45 Std 
6.
April
9,0 C-0,2 C
07:06
17,6 C
17:56
1025,1 hPa1020,1 hPa
17:56
1029,6 hPa
07:06
9,8 km/h
O-SO
30,2 km/h
15:06  
---
57 %32 %
13:56
88 %
08:31
46 klux80 klux
13:16
11:30 Std 
7.
April
12,7 C5,6 C
06:37
21,2 C
17:17
1018,9 hPa1016,6 hPa
17:17
1021,3 hPa
00:02
8,8 km/h
O-SO
30,1 km/h
11:57  
---
49 %28 %
17:27
68 %
23:43
45,4 klux81,7 klux
13:02
10:35 Std 
8.
April
10,2 C4,8 C
06:38
15,5 C
14:33
1023,6 hPa1019,1 hPa
00:03
1029,3 hPa
23:59
5,2 km/h
NW
23,6 km/h
15:38  
---
10 Minuten
73 %57 %
15:13
86 %
08:53
18,5 klux53,3 klux
14:18
--- 
9.
April
9,8 C4,2 C
07:44
15,2 C
13:24
1031,4 hPa1029,3 hPa
00:04
1033,1 hPa
08:04
6,1 km/h
NW
18,5 km/h
12:14  
---
68 %44 %
13:19
85 %
08:29
29,3 klux107,0 klux
13:19
4:40 Std 
10.
April
9,1 C3,7 C
23:56
15,0 C
16:20
1029,1 hPa1026,0 hPa
18:05
1031,7 hPa
01:50
6,0 km/h
NO
22,2 km/h
15:35  
---
64 %36 %
16:20
89 %
07:25
43 klux103 klux
12:35
6:26 Std 
11.
April
5,0 C0,3 C
07:11
11,2 C
18:31
1024,4 hPa1021,9 hPa
18:31
1028,2 hPa
00:46
8,2 km/h
NO
27,6 km/h
15:56  
0,3 l/m
1:36 Stunden
72 %47 %
18:46
90 %
07:31
22 klux105 klux
12:31
3:45 Std 
12.
April
5,3 C2,3 C
00:32
6,6 C
09:42
1020,1 hPa1018,4 hPa
16:07
1024,1 hPa
00:32
7,4 km/h
NO
26,8 km/h
15:32  
5,3 l/m
7:25 Stunden
86 %75 %
00:02
96 %
23:08
8 klux21 klux
16:02
--- 
13.
April
9,7 C5,6 C
00:03
15,9 C
17:38
1016,2 hPa1014,1 hPa
17:38
1018,5 hPa
00:03
7,3 km/h
NO
28,8 km/h
14:48  
1,1 l/m
2:50 Stunden
74 %44 %
17:48
97 %
01:23
29,7 klux96,3 klux
12:28
4:15 Std 
14.
April
8,7 C2,4 C
07:24
14,0 C
18:54
1016,0 hPa1014,3 hPa
18:54
1017,2 hPa
23:25
8,9 km/h
NO
27,6 km/h
16:29  
---
1:00 Stunden
67 %38 %
13:04
91 %
08:14
32,4 klux101,0 klux
13:19
5:06 Std 
15.
April
8,5 C5,4 C
06:55
12,7 C
16:20
1017,9 hPa1017,2 hPa
00:00
1019,1 hPa
23:26
3,6 km/h
NO
19,7 km/h
15:55  
---
50 Minuten
73 %56 %
17:55
90 %
08:15
16 klux82 klux
10:50
15 Min 
16.
April
9,7 C4,5 C
07:21
16,0 C
18:16
1021,2 hPa1019,1 hPa
00:01
1023,8 hPa
23:57
5,9 km/h
NW
26,7 km/h
15:31  
---
61 %36 %
18:31
85 %
07:26
48,1 klux91,7 klux
14:01
11:20 Std 
17.
April
8,6 C-1,3 C
06:52
19,7 C
17:57
1022,1 hPa1017,0 hPa
19:27
1025,6 hPa
06:52
3,6 km/h
SO
19,0 km/h
18:57  
---
57 %23 %
15:07
90 %
08:02
48,8 klux85,0 klux
12:57
12:15 Std 
18.
April
10,8 C0,1 C
06:32
22,2 C
17:23
1014,2 hPa1010,2 hPa
17:23
1018,9 hPa
02:18
4,0 km/h
SO
18,2 km/h
17:03  
---
53 %22 %
13:58
85 %
07:48
48,4 klux85,3 klux
12:58
12:15 Std 
19.
April
10,5 C2,6 C
07:09
18,3 C
17:04
1014,3 hPa1012,8 hPa
17:04
1016,1 hPa
23:55
6,6 km/h
NW
23,3 km/h
14:44  
---
59 %39 %
13:24
81 %
08:04
44,0 klux80,7 klux
13:14
10:40 Std 
20.
April
9,3 C0,9 C
06:50
18,4 C
17:00
1015,2 hPa1011,7 hPa
17:00
1018,3 hPa
23:51
13,3 km/h
W-NW
45,0 km/h
14:10  
---
61 %28 %
17:10
90 %
08:30
45,2 klux90,3 klux
13:50
9:45 Std 
21.
April
5,2 C0,3 C
07:11
9,8 C
15:41
1018,6 hPa1017,0 hPa
15:51
1020,1 hPa
23:57
9,3 km/h
NW
33,0 km/h
15:46  
---
20 Minuten
64 %41 %
19:16
83 %
07:31
23,4 klux102,0 klux
14:21
2:25 Std 
22.
April
5,6 C-3,1 C
07:07
16,9 C
18:22
1018,1 hPa1014,0 hPa
18:22
1021,7 hPa
07:27
4,2 km/h
W-NW
17,0 km/h
19:57  
---
55 %21 %
19:12
86 %
07:12
48 klux92 klux
12:47
12:25 Std 
23.
April
8,9 C-2,3 C
06:48
20,6 C
17:38
1015,6 hPa1013,5 hPa
17:38
1017,4 hPa
06:48
5,7 km/h
SO
20,3 km/h
15:13  
---
47 %20 %
13:18
81 %
07:58
49,8 klux88,1 klux
13:23
12:35 Std 
24.
April
12,0 C0,2 C
06:54
24,2 C
17:44
1019,5 hPa1017,4 hPa
00:04
1022,2 hPa
23:55
5,4 km/h
SO
19,0 km/h
12:34  
---
47 %20 %
14:19
79 %
07:14
49,9 klux87,6 klux
12:49
12:40 Std 
25.
April
14,5 C3,3 C
06:25
24,6 C
13:20
1021,6 hPa1019,3 hPa
16:30
1024,3 hPa
09:10
6,6 km/h
SO
32,2 km/h
13:39  
---
49 %23 %
13:20
82 %
07:55
45,5 klux96,5 klux
14:15
9:20 Std 
26.
April
12,1 C9,2 C
06:55
18,3 C
18:33
1023,9 hPa1020,7 hPa
00:00
1026,2 hPa
23:58
9,7 km/h
W-NW
33,8 km/h
01:15  
6,8 l/m
1:45 Stunden
78 %49 %
18:23
94 %
07:25
37,4 klux81,0 klux
16:38
4:00 Std 
27.
April
11,7 C4,0 C
07:08
19,0 C
18:28
1027,5 hPa1026,1 hPa
18:28
1029,0 hPa
07:23
5,1 km/h
W-NW
18,8 km/h
15:18  
---
68 %37 %
18:38
94 %
08:08
43,8 klux99,7 klux
13:38
9:21 Std 
28.
April
13,5 C3,5 C
06:59
23,5 C
17:04
1025,3 hPa1020,5 hPa
18:24
1029,1 hPa
06:59
5,8 km/h
SO
21,8 km/h
13:44  
---
59 %29 %
18:09
92 %
08:24
49 klux89 klux
11:54
12:10 Std 
29.
April
16,5 C6,4 C
05:59
25,1 C
13:45
1014,7 hPa1008,6 hPa
22:56
1021,1 hPa
01:25
6,7 km/h
W-SW
28,7 km/h
16:35  
---
57 %30 %
13:50
87 %
07:15
41,7 klux95,5 klux
13:45
7:31 Std 
30.
April
16,9 C11,9 C
23:57
19,0 C
01:01
1009,6 hPa1006,5 hPa
02:51
1012,5 hPa
23:57
21,2 km/h
W-SW
43,3 km/h
13:26  
---
1:41 Stunden
60 %48 %
16:16
86 %
23:37
29,5 klux116,0 klux
12:41
2:35 Std 



April
2010

Temperatur

  

Luftdruck

  

Wind

  

Regen

  

Luftfeuchte

  

Helligkeit

Sonnen-
schein

Min

Max

Min

Max

Max

Max

Min

Max

Max

Max

9,6 C

-3,1 C

07:07 Uhr
22.04.2010

25,1 C

13:45 Uhr
29.04.2010

1019,3 hPa

1005,2 hPa

00:02 Uhr
01.04.2010

1033,1 hPa

08:04 Uhr
09.04.2010

8,9 km/h

SO

51,6 km/h

16:44 Uhr
04.04.2010

6,8 l/m

1:45 Stunden
26.04.2010

64 %

20 %

13:18 Uhr
23.04.2010

97 %

01:23 Uhr
13.04.2010

37 klux

116,0 klux

12:41 Uhr
30.04.2010

12:40 Std

am
24.04.2010

Gesamt

Gesamt

15,0 l/m

11 Tage
22:28 h

218:19 Std


Wetter-Diagramme April 2010     Heinzenberg / Taunus   
TemperaturLuftfeuchte
SolarstrahlungLuftdruck
HelligkeitSonnenschein
RegenmengeRegendauer
Wind-GeschwindigkeitWind-Richtung